TimeEDT,TemperatureF,Dew PointF,Humidity,Sea Level PressureIn,VisibilityMPH,Wind Direction,Wind SpeedMPH,Gust SpeedMPH,PrecipitationIn,Events,Conditions,WindDirDegrees,DateUTC
12:00 AM,39.2,35.6,87,29.68,25.0,West,4.6,-,N/A,,Overcast,280,2012-11-03 04:00:00
1:00 AM,39.2,35.6,87,29.69,25.0,West,5.8,-,N/A,,Overcast,280,2012-11-03 05:00:00
2:00 AM,39.2,35.6,87,29.70,25.0,WNW,6.9,-,N/A,,Overcast,290,2012-11-03 06:00:00
3:00 AM,39.2,33.8,81,29.71,25.0,West,5.8,-,N/A,,Overcast,280,2012-11-03 07:00:00
4:00 AM,39.2,33.8,81,29.72,25.0,West,5.8,-,N/A,,Overcast,270,2012-11-03 08:00:00
5:00 AM,37.4,33.8,87,29.73,25.0,West,5.8,-,N/A,,Overcast,280,2012-11-03 09:00:00
6:00 AM,37.4,33.8,87,29.74,25.0,West,6.9,-,N/A,Rain,Light Rain Showers,260,2012-11-03 10:00:00
7:00 AM,37.4,33.8,87,29.76,25.0,West,4.6,-,N/A,Rain,Rain Showers,260,2012-11-03 11:00:00
8:00 AM,37.4,33.8,87,29.77,45.0,SW,5.8,-,N/A,,Overcast,230,2012-11-03 12:00:00
9:00 AM,37.4,33.8,87,29.79,45.0,West,6.9,-,N/A,,Overcast,260,2012-11-03 13:00:00
10:00 AM,39.2,33.8,81,29.79,45.0,West,4.6,-,N/A,,Overcast,270,2012-11-03 14:00:00
11:00 AM,41.0,33.8,76,29.81,45.0,West,8.1,-,N/A,,Overcast,280,2012-11-03 15:00:00
11:09 AM,41.0,33.8,76,29.81,25.0,West,8.1,-,N/A,Rain,Light Rain Showers,270,2012-11-03 15:09:00
12:00 PM,41.0,33.8,76,29.81,25.0,West,10.4,-,N/A,Rain,Light Rain Showers,280,2012-11-03 16:00:00
1:00 PM,39.2,35.6,87,29.81,15.0,West,6.9,-,N/A,Rain,Light Rain Showers,270,2012-11-03 17:00:00
2:00 PM,41.0,35.6,81,29.81,25.0,West,9.2,-,N/A,Rain,Light Rain Showers,270,2012-11-03 18:00:00
3:00 PM,41.0,35.6,81,29.81,15.0,NW,10.4,-,N/A,Rain,Light Rain,310,2012-11-03 19:00:00
4:00 PM,41.0,35.6,81,29.83,15.0,West,6.9,-,N/A,Rain,Light Rain,280,2012-11-03 20:00:00
5:00 PM,41.0,33.8,76,29.84,15.0,WNW,8.1,-,N/A,,Overcast,290,2012-11-03 21:00:00
5:55 PM,41.0,33.8,76,29.86,15.0,WNW,5.8,-,N/A,,Mostly Cloudy,290,2012-11-03 21:55:00
6:00 PM,41.0,33.8,76,29.86,15.0,NW,8.1,-,N/A,,Mostly Cloudy,310,2012-11-03 22:00:00
7:00 PM,41.0,33.8,76,29.87,15.0,WNW,8.1,-,N/A,,Overcast,300,2012-11-03 23:00:00
8:00 PM,41.0,33.8,76,29.88,15.0,WNW,4.6,-,N/A,,Overcast,290,2012-11-04 00:00:00
9:00 PM,41.0,32.0,70,29.89,25.0,NW,8.1,-,N/A,Rain,Light Rain,310,2012-11-04 01:00:00
10:00 PM,39.2,32.0,75,29.90,25.0,WNW,8.1,-,N/A,Rain,Light Rain,290,2012-11-04 02:00:00
10:52 PM,39.2,32.0,75,29.91,25.0,WNW,6.9,-,N/A,,Overcast,290,2012-11-04 02:52:00
11:00 PM,39.2,32.0,75,29.91,25.0,WNW,5.8,-,N/A,,Overcast,290,2012-11-04 03:00:00